Doha, Qatar

7:48 AM AST on February 13, 2016 (GMT +0300)
Doha International

Weather History for OTBD - January, 2013

Change the Weather History Date:

Friday, January 18, 2013

  Actual Average Record
Temperature  
Mean Temperature 64 °F -  
Max Temperature 71 °F 72 °F 80 °F (1999)
Min Temperature 56 °F 56 °F 50 °F (2008)
Degree Days  
Heating Degree Days 2    
Growing Degree Days 14 (Base 50)    
Moisture  
Dew Point 46 °F    
Average Humidity 53    
Maximum Humidity 72    
Minimum Humidity 34    
Precipitation  
Precipitation 0.00 in 0.02 in - ()
Sea Level Pressure  
Sea Level Pressure 30.21 in    
Wind  
Wind Speed 3 mph ()    
Max Wind Speed 10 mph    
Max Gust Speed -    
Visibility 6.5 miles    
Events      
Averages and records for this station are not official NWS values.
T = Trace of Precipitation, MM = Missing Value Source: Averaged Metar Reports

Daily Weather History Graph

Daily Weather History Graph

Search for Another Location

Airport or City:

Trip Planner

Search our weather history database for the weather conditions in past years. The results will help you decide how hot, cold, wet, or windy it might be!

Date:

Astronomy

Jan. 18, 2013 Rise Set
Actual Time 6:20 AM AST 5:07 PM AST
Civil Twilight 5:56 AM AST 5:32 PM AST
Nautical Twilight 5:28 AM AST 6:00 PM AST
Astronomical Twilight 5:00 AM AST 6:27 PM AST
Moon 10:34 AM AST (1/18) 11:43 PM AST (1/18)
Length of Visible Light 11h 35m
Length of Day
10h 46m
Waxing Crescent, 44% of the Moon is Illuminated
Jan 18
Waxing Crescent
Jan 19
First Quarter
Jan 27
Full
Feb 3
Last Quarter
Feb 10
New

Hourly Weather History & Observations

Time (AST) Temp. Dew Point Humidity Pressure Visibility Wind Dir Wind Speed Gust Speed Precip Events Conditions
12:00 AM 62.6 °F 42.8 °F 48% 30.21 in - NNW 5.8 mph - N/A   Clear
1:00 AM 62.6 °F 42.8 °F 48% 30.21 in - NNW 3.5 mph - N/A   Clear
2:00 AM 60.8 °F 42.8 °F 52% 30.18 in - Variable 2.3 mph - N/A   Clear
3:00 AM 59 °F 44 °F 46% 30.29 in 7 mi 1.2 mph - -  
3:00 AM 59.0 °F 44.6 °F 59% 30.18 in - Variable 1.2 mph - N/A   Clear
3:30 AM 60.8 °F 42.8 °F 52% 30.18 in - Variable 1.2 mph - N/A   Clear
4:00 AM 59.0 °F 42.8 °F 55% 30.18 in - Calm Calm - N/A   Clear
4:30 AM 57.2 °F 44.6 °F 63% 30.18 in - Variable 2.3 mph - N/A   Clear
5:00 AM 59.0 °F 44.6 °F 59% 30.21 in - Variable 2.3 mph - N/A   Clear
5:30 AM 57.2 °F 42.8 °F 59% 30.21 in - Variable 2.3 mph - N/A   Clear
6:00 AM 57.2 °F 44.6 °F 63% 30.21 in 6.2 mi Variable 2.3 mph - N/A   Partly Cloudy
6:30 AM 57.2 °F 42.8 °F 59% 30.21 in 6.2 mi WSW 3.5 mph - N/A   Partly Cloudy
7:00 AM 57.2 °F 44.6 °F 63% 30.24 in 6.2 mi Variable 2.3 mph - N/A   Partly Cloudy
7:30 AM 60.8 °F 46.4 °F 59% 30.24 in 6.2 mi Variable 2.3 mph - N/A   Partly Cloudy
8:00 AM 62.6 °F 44.6 °F 52% 30.27 in - Variable 1.2 mph - N/A   Clear
8:30 AM 64.4 °F 48.2 °F 56% 30.27 in - Variable 1.2 mph - N/A   Clear
9:00 AM 67 °F 46 °F 36% 30.29 in 7 mi 2.3 mph - -  
9:00 AM 68.0 °F 46.4 °F 46% 30.27 in - Variable 2.3 mph - N/A   Clear
9:30 AM 69.8 °F 46.4 °F 43% 30.27 in - WSW 3.5 mph - N/A   Clear
10:00 AM 69.8 °F 44.6 °F 40% 30.27 in - WSW 3.5 mph - N/A   Clear
10:30 AM 71.6 °F 44.6 °F 38% 30.27 in - SW 3.5 mph - N/A   Clear
11:00 AM 69.8 °F 42.8 °F 38% 30.24 in - South 4.6 mph - N/A   Clear
12:00 PM 71.6 °F 42.8 °F 35% 30.18 in - Variable 2.3 mph - N/A   Clear
12:30 PM 71.6 °F 44.6 °F 38% 30.18 in - East 4.6 mph - N/A   Clear
1:00 PM 69.8 °F 46.4 °F 43% 30.15 in - East 8.1 mph - N/A   Clear
1:30 PM 69.8 °F 44.6 °F 40% 30.15 in - East 8.1 mph - N/A   Clear
2:00 PM 69.8 °F 46.4 °F 43% 30.15 in - East 10.4 mph - N/A   Clear
3:00 PM 69 °F 47 °F 34% 30.16 in 7 mi ESE 9.2 mph - -   Clear
3:00 PM 68.0 °F 46.4 °F 46% 30.15 in - ESE 9.2 mph - N/A   Clear
3:30 PM 68.0 °F 46.4 °F 46% 30.15 in - East 9.2 mph - N/A   Clear
4:00 PM 68.0 °F 48.2 °F 49% 30.15 in - ESE 8.1 mph - N/A   Clear
5:00 PM 66.2 °F 46.4 °F 49% 30.18 in - ESE 5.8 mph - N/A   Clear
5:30 PM 64.4 °F 48.2 °F 56% 30.18 in - SE 6.9 mph - N/A   Clear
6:00 PM 64.4 °F 48.2 °F 56% 30.21 in - SE 5.8 mph - N/A   Clear
7:00 PM 64.4 °F 50.0 °F 59% 30.21 in - SE 4.6 mph - N/A   Clear
8:00 PM 62.6 °F 50.0 °F 63% 30.21 in - Calm Calm - N/A   Clear
8:30 PM 62.6 °F 51.8 °F 68% 30.21 in - Calm Calm - N/A   Clear
9:00 PM 60.8 °F 51.8 °F 72% 30.21 in 6.2 mi Calm Calm - N/A   Partly Cloudy
9:30 PM 62.6 °F 51.8 °F 68% 30.21 in 6.2 mi Calm Calm - N/A   Partly Cloudy
10:00 PM 62.6 °F 51.8 °F 68% 30.21 in - Calm Calm - N/A   Clear
10:30 PM 62.6 °F 50.0 °F 63% 30.21 in - Variable 2.3 mph - N/A   Clear
11:00 PM 60.8 °F 50.0 °F 68% 30.18 in - SSE 3.5 mph - N/A   Clear
11:30 PM 62.6 °F 50.0 °F 63% 30.18 in - Variable 2.3 mph - N/A   Clear